sat.trackr.live / text

‹ back to catalog

STARLINK-5435

NORAD 54797 · 2022-175AR

PAYLOAD ACTIVE UNKNOWN

§ Identity

Operator
Country
US
Launch date
2022-12-17
Launch site
AFETR
Launch vehicle
Mass (kg)
RCS (m²)

Purposes: comms

External: N2YO · Heavens-Above · Gunter

§ Orbital elements

Epoch: 2026-05-25T01:56:18.146112Z

Period
95.44 min
Inclination
53.2135°
Eccentricity
0.0001221
Mean motion
15.08840726 rev/d
Perigee alt
538.9 km
Apogee alt
540.6 km
Semi-major
6,917.9 km
B*
3.9966e-5
RAAN
61.0296°
Arg perigee
92.0549°
Mean anomaly
268.0583°
Rev number
19,145

§ Raw data

STARLINK-54351 54797U 22175AR  26145.08076558  .00000348  00000+0  39966-4 0  99972 54797  53.2135  61.0296 0001221  92.0549 268.0583 15.08840726191455

JSON: /api/v1/satellites/54797 · /tle

For live sub-satellite position, see the globe view (requires WebGL).

§ Visibility from observer

Set your observer location to see the next 7 days of passes ≥ 10°. The values pass through the URL so the page stays shareable.

No JS? Fill the form by hand. The geolocation button needs JavaScript.